Tracking 19242 objects as of 15-Aug-2018
HD Live streaming from Space Station
objects crossing your sky now

FENGYUN 1C DEB

Track FENGYUN 1C DEB now!
10-day predictions


NORAD ID: 31464
Int'l Code: 1999-025BVC
Perigee: 834.4 km
Apogee: 899.0 km
Inclination: 99.1 °
Period: 102.1 minutes
Semi major axis: 7237 km
RCS: 0.0009 m2 (small)
Launch date: May 10, 1999
Source: People's Republic of China (PRC)
Launch site: Taiyaun Space Center, China (TSC)

Note: This is SATELLITE DEBRIS
aabbcc
Your satellite tracking list
Your tracking list is empty




NASA's NSSDC Master Catalog

Two Line Element Set (TLE):
1 31464U 99025BVC 18227.29790603  .00000020  00000-0  37317-4 0  9996
2 31464  99.1094 243.3024 0044624 216.8716 200.8980 14.09941128582608
Source of the keplerian elements: AFSPC